Find Starlink 32941

NORAD ID: 63119 Int'l Des: 2025-039 Owner: SPXS Country: US Constellation: starlink operational
LEOCIRCULAR

实时位置

正在加载3D地球...

关于 Starlink 32941

正在加载描述...

即将过境

Passes for default location (London). Set your location on the main map for personalized predictions.

高度历史

Loading altitude history...

两行轨道根数

1 63119U 25039R 26125.48145289 .00015490 00000-0 57046-3 0 9990
2 63119 43.0032 40.6778 0001652 263.4679 96.5984 15.27625403 66881
Epoch: May 5, 2026 • Age: 10 hours

当前状态

高度 484.4 km
速度 7.63 km/s
星下点 30.81°N, 8.08°W
发射日期 Feb 27, 2025
运行时间 1.1 years
类型 internet

技术详情

分类 Payload
质量 730.00 kg
干质量 700.00 kg
总质量 730.00 kg
长度 0.30 m
直径 4.10 m
跨度 29.00 m
形状 Box + pan
制造商 SPXS
平台类型 Starlink V2M
阶段状态 In Orbit
所有者/国家 SPXS/US

Most Searched